Weather History for Eagle, AK

Change the Weather History Date:

Monday, July 8, 2013

  Actual Average (PABN) Record (PABN)
Temperature  
Mean Temperature 56 °F -  
Max Temperature 66 °F 61 °F 73 °F (2000)
Min Temperature 48 °F 51 °F 39 °F (2008)
Degree Days  
Heating Degree Days 9    
Growing Degree Days 6 (Base 50)    
Moisture  
Dew Point 47 °F    
Average Humidity 77    
Maximum Humidity 96    
Minimum Humidity 46    
Precipitation  
Precipitation 0.04 in - - ()
Sea Level Pressure  
Sea Level Pressure 29.60 in    
Wind  
Wind Speed 2 mph (SSE)    
Max Wind Speed 10 mph    
Max Gust Speed 22 mph    
Visibility 10 miles    
Events Rain    
Averages and records for this station are not official NWS values.
T = Trace of Precipitation, MM = Missing Value Source: NWS Daily Summary

Daily Weather History Graph

Daily Weather History Graph

Search for Another Location

Airport:

Trip Planner

Search our weather history database for the weather conditions in past years. The results will help you decide how hot, cold, wet, or windy it might be!

Date:

Astronomy

Jul. 08, 2013 Rise Set
Actual Time 3:06 AM AKDT 11:50 PM AKDT
Civil Twilight Sun does not rise Sun does not rise
Nautical Twilight Sun does not rise Sun does not rise
Astronomical Twilight Sun does not rise Sun does not rise
Moon 4:50 AM AKDT (7/8) 10:37 PM AKDT (7/8)
Length of Visible Light 24h 00m
Length of Day
20h 44m
New Moon, 0% of the Moon is Illuminated
Jul 8
New Moon
Jul 15
First Quarter
Jul 22
Full
Jul 29
Last Quarter
Aug 6
New

Hourly Weather History & Observations

Time (AKDT) Temp. Dew Point Humidity Pressure Visibility Wind Dir Wind Speed Gust Speed Precip Events Conditions
12:53 AM 48.9 °F 46.9 °F 93% 29.57 in 10.0 mi Calm Calm - N/A   Clear
1:53 AM 48.0 °F 46.0 °F 93% 29.58 in 10.0 mi Calm Calm - N/A   Overcast
2:53 AM 48.0 °F 46.0 °F 93% 29.58 in 10.0 mi Calm Calm - N/A   Overcast
3:53 AM 48.0 °F 46.9 °F 96% 29.58 in 10.0 mi Calm Calm - 0.00 in Rain Light Rain
4:53 AM 48.9 °F 46.9 °F 93% 29.58 in 10.0 mi Calm Calm - 0.00 in   Overcast
5:53 AM 50.0 °F 48.0 °F 93% 29.56 in 10.0 mi Calm Calm - 0.00 in   Overcast
6:53 AM 51.1 °F 48.9 °F 92% 29.56 in 10.0 mi Calm Calm - 0.01 in   Overcast
7:53 AM 53.1 °F 50.0 °F 89% 29.56 in 10.0 mi Calm Calm - N/A   Overcast
8:53 AM 53.1 °F 51.1 °F 93% 29.56 in 9.0 mi Calm Calm - 0.01 in Rain Light Rain
9:25 AM 53.6 °F 51.8 °F 94% 29.56 in 10.0 mi Calm Calm - 0.01 in   Overcast
9:53 AM 55.0 °F 51.1 °F 86% 29.55 in 10.0 mi Calm Calm - 0.01 in   Overcast
10:15 AM 55.4 °F 51.8 °F 88% 29.55 in 10.0 mi Calm Calm - N/A   Overcast
10:53 AM 55.0 °F 53.1 °F 93% 29.56 in 10.0 mi Calm Calm - 0.00 in Rain Light Rain
11:17 AM 57.2 °F 53.6 °F 88% 29.56 in 10.0 mi Calm Calm - 0.00 in   Overcast
11:53 AM 57.9 °F 54.0 °F 87% 29.57 in 10.0 mi Variable 6.9 mph - 0.00 in Rain Light Rain
12:53 PM 59.0 °F 53.1 °F 81% 29.58 in 10.0 mi SE 5.8 mph 16.1 mph 0.00 in   Overcast
1:53 PM 61.0 °F 53.1 °F 75% 29.58 in 10.0 mi ESE 10.4 mph - 0.01 in   Overcast
2:53 PM 64.0 °F 46.9 °F 54% 29.60 in 10.0 mi Variable 6.9 mph - N/A   Overcast
3:53 PM 62.1 °F 43.0 °F 50% 29.62 in 10.0 mi South 10.4 mph 21.9 mph N/A   Scattered Clouds
4:53 PM 62.1 °F 43.0 °F 50% 29.62 in 10.0 mi South 6.9 mph - N/A   Overcast
5:53 PM 63.0 °F 42.1 °F 46% 29.63 in 9.0 mi South 8.1 mph 18.4 mph N/A   Scattered Clouds
6:53 PM 61.0 °F 42.1 °F 50% 29.65 in 7.0 mi Calm Calm - N/A   Mostly Cloudy
7:53 PM 60.1 °F 41.0 °F 49% 29.65 in 9.0 mi SSE 6.9 mph - N/A   Mostly Cloudy
8:53 PM 60.1 °F 42.1 °F 51% 29.66 in 10.0 mi Variable 3.5 mph - N/A   Overcast
9:53 PM 59.0 °F 42.1 °F 53% 29.66 in 10.0 mi South 4.6 mph - N/A   Mostly Cloudy
10:53 PM 57.0 °F 43.0 °F 59% 29.68 in 10.0 mi South 3.5 mph - N/A   Mostly Cloudy
11:53 PM 51.1 °F 44.1 °F 77% 29.70 in 10.0 mi Calm Calm - N/A   Partly Cloudy